GFSFLT1_850_dewp_141.txt.gz
Dewpoint
1 1 -1 -3 -4 -4 -3 -3 -1 -0 0 0 0 1 0 0 -0 -0 -1 -1 -1 -1 -1 0 1 1 2 2 3 3 3 3
2 1 -1 -3 -4 -4 -3 -3 -1 -0 -0 0 1 1 0 0 -0 -0 -1 -1 -1 -1 -2 -3 -4 -4 -4 -4 -3 -3 -3 -3
2 1 -0 -1 -2 -4 -3 -2 -2 -1 -0 -0 0 0 -0 -0 -1 -1 -2 -2 -2 -1 -0 0 -0 -0 -1 -1 -2 -4 -4 -4
2 2 1 1 -1 -3 -2 -4 -6 -5 -4 -3 -2 -1 -0 -0 -2 -5 -6 -6 -6 -6 -6 -5 -4 -3 -1 0 0 0 0 0
2 2 2 1 -2 -3 -5 -10 -11 -11 -10 -8 -6 -5 -5 -7 -8 -8 -7 -7 -7 -6 -5 -5 -5 -4 -3 -3 -2 -0 0 1
2 2 2 1 -2 -4 -7 -10 -12 -13 -13 -12 -11 -10 -10 -8 -7 -6 -6 -6 -5 -5 -5 -4 -3 -3 -3 -2 -1 -1 -1 -0
2 2 2 0 -1 -3 -6 -10 -11 -11 -11 -11 -10 -10 -9 -7 -6 -5 -4 -4 -3 -3 -2 -2 -2 -2 -2 -2 -2 -2 -2 -1
2 2 1 0 -1 -2 -5 -8 -10 -10 -10 -10 -9 -8 -7 -6 -5 -4 -3 -3 -3 -3 -3 -2 -2 -2 -2 -3 -3 -2 -2 -1
2 2 1 -0 -1 -2 -5 -8 -9 -9 -9 -9 -8 -7 -5 -5 -4 -3 -3 -3 -3 -3 -3 -3 -3 -3 -3 -3 -3 -3 -3 -3
2 1 1 0 -1 -2 -6 -8 -8 -8 -7 -7 -6 -6 -5 -4 -4 -4 -4 -3 -3 -4 -5 -4 -3 -3 -3 -4 -4 -5 -4 -4
2 1 1 0 -1 -2 -6 -7 -7 -7 -7 -7 -7 -5 -5 -5 -5 -5 -5 -5 -5 -6 -8 -8 -6 -4 -4 -4 -5 -5 -5 -5
1 1 0 -0 -1 -2 -5 -7 -6 -7 -7 -6 -6 -5 -6 -6 -7 -8 -8 -9 -10 -10 -12 -14 -9 -9 -7 -7 -7 -7 -7 -7
1 1 0 -0 -1 -2 -4 -6 -6 -6 -5 -5 -5 -5 -6 -7 -7 -8 -10 -12 -15 -18 -20 -20 -13 -12 -12 -16 -19 -22 -20 -17
1 1 0 -1 -1 -2 -3 -5 -5 -5 -5 -4 -5 -5 -6 -7 -8 -10 -13 -16 -19 -20 -25 -23 -18 -18 -17 -18 -23 -30 -28 -29
1 0 -0 -1 -1 -2 -2 -4 -5 -5 -4 -5 -5 -5 -6 -7 -9 -12 -16 -19 -20 -23 -29 -27 -22 -21 -20 -21 -26 -32 -33 -31
1 0 -0 -0 -1 -1 -2 -4 -4 -4 -4 -4 -4 -5 -6 -7 -11 -15 -20 -22 -22 -27 -32 -25 -22 -24 -24 -22 -24 -29 -32 -28
1 1 2 1 1 0 -2 -4 -4 -4 -4 -4 -5 -6 -7 -10 -15 -20 -23 -25 -25 -30 -32 -27 -24 -24 -26 -24 -25 -29 -29 -28
2 2 3 3 3 -0 -2 -3 -3 -4 -4 -4 -5 -6 -8 -14 -19 -24 -26 -27 -30 -32 -32 -31 -25 -23 -26 -27 -29 -28 -25 -25
2 3 3 2 1 -1 -1 -1 -2 -4 -4 -5 -6 -7 -12 -18 -22 -24 -24 -27 -30 -32 -33 -29 -28 -27 -26 -26 -27 -26 -23 -21

GFSFLT1_850_dewp_144.txt.gz
Dewpoint
1 0 -0 -1 -2 -4 -4 -4 -4 -3 -2 -2 -1 -1 -1 -0 -1 -1 -1 -2 -2 -2 -2 -2 -1 -1 -1 -2 -2 -3 -2 -2
1 1 0 -1 -2 -3 -4 -3 -3 -2 -2 -1 -1 -1 -1 -2 -3 -3 -4 -4 -3 -3 -2 -1 -1 -1 -1 -2 -3 -3 -3 -3
1 1 1 -0 -1 -3 -3 -3 -2 -1 -1 -1 -1 -2 -3 -5 -7 -7 -8 -9 -9 -8 -8 -7 -7 -7 -7 -5 -3 -1 -0 0
2 2 1 -0 -1 -3 -3 -3 -3 -2 -2 -3 -5 -6 -7 -8 -10 -11 -12 -12 -11 -10 -9 -9 -9 -8 -8 -7 -5 -4 -4 -3
2 2 1 1 -0 -2 -2 -5 -6 -6 -7 -8 -9 -11 -12 -12 -11 -10 -9 -8 -7 -7 -7 -7 -7 -7 -6 -6 -6 -4 -2 -1
2 2 1 1 0 -2 -3 -8 -11 -13 -14 -14 -13 -12 -11 -10 -9 -7 -7 -6 -6 -6 -6 -6 -5 -4 -3 -3 -3 -2 -2 -2
2 2 2 1 0 -2 -4 -8 -12 -13 -12 -12 -11 -11 -10 -8 -7 -7 -6 -6 -5 -5 -5 -4 -3 -2 -2 -2 -2 -2 -2 -2
2 2 2 2 -0 -2 -4 -7 -10 -11 -10 -10 -9 -9 -8 -8 -7 -6 -5 -4 -4 -4 -3 -3 -3 -2 -2 -3 -3 -2 -2 -2
2 2 2 1 -0 -2 -3 -6 -9 -9 -9 -8 -8 -8 -8 -7 -6 -5 -5 -4 -4 -4 -4 -4 -4 -3 -3 -3 -4 -4 -4 -4
2 2 2 1 -0 -1 -2 -6 -7 -8 -8 -8 -7 -7 -7 -6 -5 -5 -5 -5 -6 -6 -6 -7 -7 -7 -7 -5 -5 -5 -5 -4
2 2 2 1 0 -1 -2 -5 -7 -8 -7 -7 -6 -6 -6 -6 -6 -6 -7 -8 -9 -11 -11 -11 -11 -12 -11 -10 -11 -9 -7 -7
2 2 2 1 0 -1 -2 -5 -7 -7 -6 -6 -6 -6 -6 -6 -7 -7 -8 -10 -14 -19 -22 -23 -22 -18 -15 -18 -21 -21 -19 -17
2 2 1 1 -0 -1 -2 -5 -6 -6 -5 -5 -5 -6 -6 -6 -7 -7 -10 -14 -19 -23 -26 -27 -25 -22 -22 -21 -24 -28 -26 -27
1 1 1 0 -0 -1 -2 -4 -6 -5 -5 -5 -5 -5 -6 -6 -7 -9 -13 -18 -23 -26 -28 -29 -24 -22 -20 -24 -30 -33 -32 -31
1 1 1 0 -0 -1 -2 -3 -5 -4 -5 -5 -5 -6 -6 -6 -7 -10 -16 -22 -24 -29 -30 -29 -24 -22 -23 -26 -28 -31 -31 -29
1 1 1 0 -0 -1 -1 -3 -4 -5 -5 -4 -5 -5 -5 -6 -8 -13 -19 -25 -29 -30 -30 -23 -21 -24 -27 -28 -27 -29 -29 -28
1 1 1 0 -0 -1 -1 -2 -4 -4 -3 -4 -5 -5 -5 -7 -11 -17 -24 -27 -30 -32 -27 -23 -21 -27 -35 -32 -28 -28 -28 -27
1 1 1 0 -0 -1 -2 -3 -3 -3 -3 -3 -5 -5 -6 -8 -14 -21 -27 -30 -31 -31 -28 -23 -24 -30 -36 -33 -27 -27 -25 -24
2 2 1 0 1 0 0 -1 -3 -1 -2 -4 -5 -6 -7 -11 -17 -24 -27 -30 -31 -32 -31 -27 -27 -36 -35 -27 -24 -24 -22 -21

GFSFLT1_850_dewp_147.txt.gz
Dewpoint
2 1 -0 -1 -2 -3 -4 -5 -6 -5 -3 -3 -2 -2 -1 -1 -1 -2 -3 -3 -3 -3 -3 -3 -2 -2 -2 -2 -2 -2 -2 -2
2 1 0 -0 -1 -3 -4 -5 -6 -5 -3 -2 -2 -1 -1 -3 -5 -7 -9 -10 -11 -11 -10 -10 -10 -9 -10 -9 -9 -8 -5 -4
2 2 1 0 -1 -2 -3 -4 -4 -4 -2 -2 -2 -3 -5 -8 -11 -13 -14 -15 -16 -15 -15 -15 -14 -14 -13 -12 -12 -11 -9 -8
2 2 1 1 -1 -2 -3 -4 -4 -3 -2 -2 -3 -6 -10 -12 -14 -14 -14 -13 -12 -12 -11 -9 -9 -7 -7 -6 -7 -7 -7 -7
2 2 1 1 -0 -1 -3 -3 -3 -3 -3 -3 -5 -8 -12 -14 -14 -12 -11 -10 -9 -8 -7 -7 -6 -5 -4 -4 -4 -4 -4 -4
1 1 1 1 0 -0 -2 -3 -4 -4 -5 -8 -10 -11 -12 -13 -11 -9 -9 -8 -7 -6 -5 -4 -4 -3 -3 -3 -3 -3 -3 -2
2 2 1 1 1 0 -2 -4 -6 -8 -11 -13 -12 -12 -11 -10 -9 -8 -7 -6 -5 -5 -4 -4 -3 -3 -3 -3 -3 -3 -3 -3
2 2 2 1 1 0 -2 -5 -9 -12 -12 -12 -11 -10 -9 -8 -7 -6 -6 -5 -5 -5 -5 -5 -5 -4 -5 -4 -4 -3 -3 -3
2 2 2 2 1 0 -2 -5 -10 -11 -11 -11 -10 -9 -8 -7 -6 -5 -5 -6 -6 -6 -6 -7 -7 -7 -8 -9 -9 -8 -6 -5
2 2 2 2 1 0 -2 -5 -8 -10 -10 -9 -9 -8 -7 -6 -6 -6 -6 -7 -8 -9 -10 -12 -13 -14 -16 -17 -18 -17 -13 -9
2 2 2 2 1 0 -2 -4 -8 -9 -8 -8 -7 -7 -6 -6 -6 -7 -7 -8 -10 -15 -19 -23 -25 -24 -24 -24 -25 -25 -23 -21
2 2 2 2 1 -0 -2 -3 -6 -7 -7 -7 -7 -7 -6 -7 -7 -7 -8 -10 -15 -20 -25 -27 -26 -27 -27 -28 -29 -30 -29 -30
2 1 2 2 1 -0 -1 -3 -6 -7 -7 -7 -6 -6 -7 -7 -7 -7 -9 -13 -18 -25 -29 -30 -29 -30 -28 -31 -33 -35 -34 -33
2 1 1 2 1 0 -1 -3 -5 -6 -6 -6 -6 -6 -6 -7 -7 -8 -12 -17 -24 -28 -30 -31 -32 -32 -33 -33 -33 -34 -32 -30
1 1 1 1 1 0 -1 -3 -5 -6 -6 -6 -6 -6 -6 -6 -7 -9 -14 -21 -26 -29 -32 -33 -34 -34 -35 -34 -31 -31 -30 -28
0 0 -0 1 1 -0 -1 -3 -4 -6 -5 -5 -5 -5 -6 -6 -7 -11 -17 -24 -28 -31 -31 -35 -34 -34 -37 -32 -31 -29 -27 -27
0 0 1 1 0 -0 -1 -2 -3 -2 -5 -5 -4 -5 -6 -6 -8 -13 -20 -26 -29 -31 -33 -35 -32 -33 -38 -37 -29 -27 -27 -25
1 1 1 1 -0 -0 -0 -2 -2 -4 -4 -4 -4 -5 -5 -6 -9 -16 -24 -28 -32 -34 -35 -31 -30 -34 -37 -35 -28 -26 -25 -25
2 1 1 1 1 -0 -0 -1 -2 -3 -3 -2 -3 -4 -5 -7 -11 -19 -26 -29 -31 -33 -34 -31 -32 -33 -33 -30 -26 -25 -26 -26

GFSFLT1_850_dewp_150.txt.gz
Dewpoint
5 4 3 2 1 -2 -3 -4 -5 -6 -4 -4 -3 -3 -2 -1 -1 -2 -3 -4 -4 -4 -5 -5 -6 -7 -8 -9 -10 -10 -10 -11
4 4 3 2 -0 -2 -2 -3 -5 -5 -3 -3 -3 -2 -2 -2 -4 -7 -10 -12 -13 -14 -14 -15 -16 -16 -16 -17 -16 -14 -9 -16
4 4 4 2 0 -1 -2 -3 -4 -3 -1 2 -0 -2 -3 -6 -10 -13 -15 -15 -15 -14 -14 -13 -13 -12 -12 -11 -11 -8 -2 -8
4 4 4 3 2 -0 -1 -2 -4 -2 0 -2 -2 -3 -6 -10 -12 -14 -13 -13 -13 -12 -11 -11 -10 -9 -9 -8 -8 -6 1 1
2 3 4 3 3 1 -1 -2 -4 -3 -2 -1 -2 -1 -3 -8 -13 -13 -12 -11 -11 -10 -10 -10 -9 -8 -7 -5 -4 -3 -1 1
1 3 3 3 3 1 -1 -2 -3 -3 -2 -1 -2 -2 -9 -13 -13 -10 -10 -10 -9 -9 -8 -8 -7 -6 -5 -4 -4 -3 -3 -2
-0 2 3 3 3 2 -1 -2 -3 -2 -1 -2 -3 -8 -12 -13 -11 -9 -8 -8 -7 -7 -7 -7 -6 -5 -5 -4 -4 -4 -3 -3
1 2 3 3 3 2 0 -1 -2 -3 -2 -3 -6 -10 -12 -12 -10 -9 -8 -7 -7 -7 -7 -7 -6 -6 -7 -7 -8 -9 -9 -7
2 2 3 3 2 2 0 -0 -1 -3 -5 -7 -10 -11 -11 -10 -9 -8 -7 -7 -7 -7 -7 -8 -9 -10 -11 -13 -16 -17 -16 -14
2 3 3 3 2 2 1 -1 -3 -7 -10 -10 -11 -10 -9 -9 -9 -8 -7 -7 -8 -9 -10 -14 -18 -21 -22 -23 -26 -26 -25 -23
3 3 3 3 2 1 1 -1 -4 -9 -10 -9 -9 -8 -8 -8 -7 -7 -7 -8 -9 -13 -16 -20 -23 -25 -27 -29 -30 -33 -31 -30
2 3 3 3 2 1 1 -1 -4 -8 -9 -8 -7 -7 -7 -7 -7 -7 -8 -9 -13 -17 -20 -24 -26 -27 -30 -31 -32 -30 -34 -27
2 2 2 2 2 1 1 -1 -3 -6 -7 -6 -6 -6 -6 -6 -7 -7 -8 -12 -16 -21 -25 -27 -29 -31 -33 -31 -28 -24 -21 -27
2 2 2 2 2 1 0 -1 -2 -3 -4 -6 -6 -6 -6 -7 -7 -7 -10 -13 -19 -24 -27 -30 -31 -31 -29 -28 -25 -24 -29 -33
2 2 2 2 1 1 -0 -1 -2 -3 -3 -5 -5 -6 -6 -6 -7 -8 -12 -16 -14 -20 -28 -31 -30 -29 -28 -30 -22 -17 -30 -34
2 2 1 1 1 0 -0 -1 -2 -4 -5 -4 -4 -4 -5 -6 -6 -9 -13 -15 -16 -23 -29 -31 -26 -22 -24 -20 -17 -20 -25 -30
2 2 2 1 1 0 -1 -1 -2 -4 -4 -3 -3 -4 -4 -5 -7 -10 -16 -21 -18 -16 -27 -19 -15 -31 -37 -36 -23 -20 -26 -18
3 2 1 1 0 -0 -0 -2 -2 -3 -2 -4 -4 -4 -5 -6 -8 -12 -18 -20 -12 -20 -19 -13 -21 -35 -38 -36 -33 -25 -22 -29
3 2 2 1 0 -1 -2 -2 -2 -2 -3 -4 -4 -4 -4 -4 -4 -8 -21 -20 -21 -28 -24 -16 -18 -34 -33 -32 -32 -31 -27 -28